Regional Weather Roundup
Issued by NWS Grand Forks, ND

Home | Current Version | Previous Version | Graphics & Text | Print | Product List | Glossary On
Versions: 1 2 3 4 5 6 7 8 9 10 11 12 13 14 15 16 17 18 19 20 21 22 23 24 25 26 27 28 29 30 31 32 33 34 35 36 37 38 39 40 41 42 43 44 45 46 47 48 49 50
000
ASUS43 KFGF 300610
RWRFGF
PRAIRIE TO PINES  WEATHER ROUNDUP
NATIONAL WEATHER SERVICE EASTERN NORTH DAKOTA/GRAND FORKS ND
1200 AM CST FRI JAN 30 2015

 **SATELLITE DATA USED TO AUGMENT SKY COVER AT AUTOMATED STATIONS**
 *****  WEATHER ACROSS EASTERN NORTH DAKOTA  *****

CITY           SKY/WX    TMP DP  RH WIND       PRES   REMARKS
GRAND FORKS    PTCLDY     6  -1  73 SE6       30.55F WCI  -4
6HR MIN TEMP:   4; 6HR MAX TEMP:   7;

GRAND FRKS AFB CLOUDY     5   0  77 S6        30.55F WCI  -5
GRAND FRKS NWS   N/A      5 N/A N/A SE2         N/A
DEVILS LAKE    CLOUDY    12   7  79 SE10      30.44F WCI  -1
6HR MIN TEMP:   9; 6HR MAX TEMP:  12;

FARGO          CLEAR      7   1  76 E3        30.58S
WAHPETON ARPT  CLEAR     10   1  67 NE3       30.58F
$$

 ***** WEATHER ACROSS CENTRAL AND WESTERN NORTH DAKOTA  *****

CITY           SKY/WX    TMP DP  RH WIND       PRES   REMARKS
BISMARCK       CLEAR     15  13  91 SE5       30.41F WCI   8
6HR MIN TEMP:  15; 6HR MAX TEMP:  25;

MINOT          MOCLDY    16  12  84 SE9       30.33F WCI   4
6HR MIN TEMP:  11; 6HR MAX TEMP:  17;

JAMESTOWN      CLOUDY    17  12  80 SE5       30.47F WCI  10
6HR MIN TEMP:  16; 6HR MAX TEMP:  18; 6HR PCP: TRACE;

MINOT AFB      CLOUDY    16  16  99 SE10      30.34F WCI   4
GARRISON         N/A     17  15  92 SE7       30.34F WCI   8
WILLISTON      CLEAR     26  20  77 S5        30.25F WCI  20
6HR MIN TEMP:  21; 6HR MAX TEMP:  28;

DICKINSON      CLEAR     24  17  74 S10       30.26F WCI  14
6HR MIN TEMP:  21; 6HR MAX TEMP:  34;

HETTINGER      CLEAR     25  15  66 SE8       30.31F WCI  16
6HR MIN TEMP:  21; 6HR MAX TEMP:  36;

$$

 *****  OTHER AIRPORT OBSERVATIONS IN OUR AREA  *****

CITY           SKY/WX    TMP DP  RH WIND       PRES   REMARKS
WALHALLA         N/A      5   1  85 S6        30.52S WCI  -6
GRAFTON AIRPOR NOT AVBL
VALLEY CITY AR CLOUDY    12  12 100 SE7       30.50S WCI   2
CANDO          MOCLDY    10   9  92 SE9       30.44F WCI  -2
CAVALIER APRT  FAIR       5   0  78 S7        30.53F WCI  -7
GWINNER        CLOUDY    19  14  79 E6        30.54S WCI  11
SHEYENNE NWR     N/A     12   6  76 E6        29.95S WCI   3
ROLLA          CLOUDY     9   7  92 S14       30.39F WCI  -8
 ***** THE ABOVE OBSERVATIONS ARE NON NWS ARE NOT QUALITY
       CONTROLLED AND MAY MIS-REPORT RAIN FOR SNOW...
$$

  *****  WEATHER ACROSS NORTHERN MINNESOTA  *****

CITY           SKY/WX    TMP DP  RH WIND       PRES   REMARKS
FLAG ISLAND    PTCLDY    -6  -9  84 CALM      30.51R
WARROAD        MOCLDY    -6  -9  84 W3        30.53S
ROSEAU         MOCLDY     0  -8  71 CALM      30.54S
HALLOCK        PTCLDY     1  -2  85 S3        30.54F
THF RVR FALLS  PTCLDY     0  -6  78 CALM      30.54S
6HR MIN TEMP:   0; 6HR MAX TEMP:   3;

BAUDETTE       MOCLDY    -6 -10  83 SW3       30.50S
6HR MIN TEMP:  -6; 6HR MAX TEMP:   4;

WASKISH        PTCLDY    -2  -6  84 CALM      30.52S
CROOKSTON      PTCLDY     3   0  85 E3        30.58F
STEPHEN NDAWN    N/A      1  -2  85 S3          N/A
GREENBUSH NDAW   N/A      0  -4  85 SW3         N/A
$$
  *****  WEATHER ACROSS CENTRAL AND WEST MINNESOTA  *****

CITY           SKY/WX    TMP DP  RH WIND       PRES   REMARKS
FOSSTON        PTCLDY    -4  -8  84 CALM      30.54S
BEMIDJI        MOCLDY    -2  -5  85 W5        30.52S WCI -12
PARK RAPIDS    CLOUDY     4   0  83 NW8       30.52R WCI  -9
6HR MIN TEMP:   4; 6HR MAX TEMP:  11;

ELBOW LAKE     FAIR       8   3  82 CALM      30.56S
WADENA         PTCLDY     3   0  85 NW5       30.55R WCI  -6
DETROIT LAKES  FAIR       3   1  92 CALM      30.53F
MOORHEAD       FAIR       7   5  92 CALM      30.58F
FERGUS FALLS   FAIR       7   0  72 CALM      30.60S
MORRIS MN      FAIR      10   7  85 CALM      30.56F
STAPLES        MOCLDY     3   1  92 NW6       30.55R WCI  -8
$$
  *****  WEATHER ELSEWHERE ACROSS MINNESOTA  *****

CITY           SKY/WX    TMP DP  RH WIND       PRES   REMARKS
DULUTH         MOCLDY     5  -2  72 N6        30.44S WCI  -6
6HR MIN TEMP:   5; 6HR MAX TEMP:  12;

INTRNTL FALLS  PTCLDY   -15 -20  78 W3        30.49S
6HR MIN TEMP: -19; 6HR MAX TEMP:   7;

ELY            CLOUDY     3  -2  78 N5        30.44S WCI  -6
CLOQUET        PTCLDY     1  -2  85 NW6       30.47S WCI -10
WHEATON        CLEAR      9   5  85 CALM      30.60S
BRAINERD       CLEAR      6   1  80 NW7       30.54R WCI  -6
6HR MIN TEMP:   6; 6HR MAX TEMP:  15;

HIBBING        FAIR      -2  -7  79 NW7       30.47R WCI -15
6HR MIN TEMP:  -2; 6HR MAX TEMP:  10;

ALEXANDRIA     CLEAR      7   3  84 N3        30.54R
6HR MIN TEMP:   7; 6HR MAX TEMP:  13;

SAINT CLOUD    CLEAR     10   6  84 NW9       30.55R WCI  -3
6HR MIN TEMP:  10; 6HR MAX TEMP:  19;

MINNEAPOLIS    CLEAR     15   5  64 NW8       30.55R WCI   4
6HR MIN TEMP:  15; 6HR MAX TEMP:  24;

$$

  *****  WEATHER ACROSS SOUTH DAKOTA  *****

CITY           SKY/WX    TMP DP  RH WIND       PRES   REMARKS
SIOUX FALLS    MOCLDY    21  16  81 NE6       30.53S WCI  13
6HR MIN TEMP:  21; 6HR MAX TEMP:  25;

BROOKINGS      NOT AVBL
WATERTOWN      CLOUDY    18  13  80 CALM      30.50S
6HR MIN TEMP:  18; 6HR MAX TEMP:  21;

HURON          CLEAR     19  16  88 SE5       30.53S WCI  12
6HR MIN TEMP:  19; 6HR MAX TEMP:  27;

SISSETON         N/A     16  10  77 NE3       30.55F
ABERDEEN       CLEAR     18  13  80 E5        30.51F WCI  11
6HR MIN TEMP:  17; 6HR MAX TEMP:  24;

MITCHELL       CLEAR     19  16  88 E5        30.54F WCI  12
PIERRE         CLEAR     21  18  88 SE9       30.45S WCI  11
6HR MIN TEMP:  17; 6HR MAX TEMP:  34;

MOBRIDGE       CLEAR     22  18  85 SE12      30.41F WCI  10
RAPID CITY     CLEAR     25  11  55 SE7       30.31F WCI  17
6HR MIN TEMP:  24; 6HR MAX TEMP:  36;

$$

  *****  SOME WEATHER IN NEARBY STATES *****

CITY           SKY/WX    TMP DP  RH WIND       PRES   REMARKS
GLASGOW MT     CLEAR     27  23  85 SE12      30.18F WCI  17
6HR MIN TEMP:  27; 6HR MAX TEMP:  34;

GREAT FALLS MT CLEAR     32  19  58 S12       30.20F WCI  23
6HR MIN TEMP:  31; 6HR MAX TEMP:  45;

CHEYENNE WY    MOCLDY    30  18  60 S7        30.31F WCI  23
6HR MIN TEMP:  29; 6HR MAX TEMP:  38;

SCOTTSBLUFF NE MOCLDY    28  21  75 E8        30.36F WCI  20
6HR MIN TEMP:  27; 6HR MAX TEMP:  41;

OMAHA NE       CLEAR     26  21  81 N6        30.55R WCI  19
6HR MIN TEMP:  25; 6HR MAX TEMP:  35;

DES MOINES IA  PTCLDY    25  18  74 N10       30.53R WCI  15
6HR MIN TEMP:  25; 6HR MAX TEMP:  32;

DAVENPORT IA   CLEAR     24  15  68 NW15      30.43R WCI  11
6HR MIN TEMP:  24; 6HR MAX TEMP:  33;

CHICAGO IL     CLOUDY    29  22  75 N15       30.31R WCI  18
6HR MIN TEMP:  29; 6HR MAX TEMP:  34; 6HR PCP: TRACE;

EAU CLAIRE WI  CLEAR     12   3  67 NW7       30.49R WCI   1
6HR MIN TEMP:  12; 6HR MAX TEMP:  25;

LA CROSSE WI   MOCLDY    20   9  62 N12       30.48R WCI   8
6HR MIN TEMP:  20; 6HR MAX TEMP:  30;

$$

  *****  SOME NATIONAL WEATHER *****

CITY           SKY/WX    TMP DP  RH WIND       PRES   REMARKS
LA GUARDIA NY  LGT SNOW  31  29  92 S8        29.97F VSB 1   WCI  23
6HR MIN TEMP:  31; 6HR MAX TEMP:  36; 6HR PCP:  0.04;

RALEIGH NC     PTCLDY    38  25  59 SW9       29.99F
6HR MIN TEMP:  36; 6HR MAX TEMP:  42;

ATLANTA GA     CLOUDY    55  38  52 W9        30.09S
6HR MIN TEMP:  53; 6HR MAX TEMP:  56; 6HR PCP: TRACE;

NEW ORLEANS LA PTCLDY    60  55  83 W7        30.23S
6HR MIN TEMP:  60; 6HR MAX TEMP:  70;

OKLAHOMA CITY  CLOUDY    43  27  53 NE10      30.51F
6HR MIN TEMP:  43; 6HR MAX TEMP:  48;

ALBUQUERQUE NM CLOUDY    42  18  37 E21       30.40S
6HR MIN TEMP:  42; 6HR MAX TEMP:  48;

SALT LAKE CITY CLOUDY    39  35  86 CALM      30.25F
6HR MIN TEMP:  38; 6HR MAX TEMP:  42;

LOS ANGELES CA CLOUDY    65  48  54 CALM      30.03R


USA.gov is the U.S. government's official web portal to all federal, state and local government web resources and services.